Grand Marais, MN

9:56 PM CST on November 19, 2019 (GMT -0600)
Grand Marais

Weather History for KGNA - September, 2019

Change the Weather History Date:

Tuesday, September 10, 2019

  Actual Average (KCKC) Record (KCKC)
Temperature  
Mean Temperature 52 °F -  
Max Temperature 55 °F 64 °F 77 °F (2005)
Min Temperature 51 °F 45 °F 30 °F (2006)
Degree Days  
Heating Degree Days 12    
Growing Degree Days 2 (Base 50)    
Moisture  
Dew Point 52 °F    
Average Humidity 98    
Maximum Humidity 100    
Minimum Humidity 93    
Precipitation  
Precipitation 0.43 in - - ()
Sea Level Pressure  
Sea Level Pressure 29.92 in    
Wind  
Wind Speed 9 mph (ENE)    
Max Wind Speed 21 mph    
Max Gust Speed 28 mph    
Averages and records for this station are not official NWS values.
T = Trace of Precipitation, MM = Missing Value Source: NWS Daily Summary

Daily Weather History Graph

Daily Weather History Graph

Search for Another Location

Airport or City:

Astronomy

Sep. 10, 2019 Rise Set
Actual Time 6:31 AM CDT 7:24 PM CDT
Civil Twilight 6:00 AM CDT 7:55 PM CDT
Nautical Twilight 5:22 AM CDT 8:32 PM CDT
Astronomical Twilight 4:43 AM CDT 9:12 PM CDT
Moon 6:17 PM CDT (9/10) 2:38 AM CDT (9/10)
Length of Visible Light 13h 55m
Length of Day
12h 52m
Waxing Gibbous, 89% of the Moon is Illuminated
Sep 10
Waxing Gibbous
Sep 13
Full
Sep 21
Last Quarter
Sep 28
New
Oct 5
First Quarter

Hourly Weather History & Observations

Time (CDT) Temp. Dew Point Humidity Pressure Visibility Wind Dir Wind Speed Gust Speed Precip Events Conditions
12:56 AM 51.1 °F 51.1 °F 100% 29.91 in - ENE 20.7 mph 27.6 mph 0.27 in   Unknown
1:56 AM 51.1 °F 50.0 °F 96% 29.87 in - ENE 19.6 mph 26.5 mph 0.04 in   Unknown
2:56 AM 53.1 °F 51.1 °F 93% 29.84 in - ENE 17.3 mph 24.2 mph N/A   Unknown
3:56 AM 53.1 °F 52.0 °F 96% 29.83 in - NE 10.4 mph - N/A   Unknown
4:56 AM 54.0 °F 53.1 °F 97% 29.81 in - ENE 8.1 mph - 0.06 in   Unknown
5:56 AM 54.0 °F 53.1 °F 97% 29.82 in - NE 5.8 mph - N/A   Unknown
6:56 AM 54.0 °F 53.1 °F 97% 29.82 in - ENE 4.6 mph - N/A   Unknown
7:56 AM 54.0 °F 52.0 °F 93% 29.82 in - Calm Calm - N/A   Unknown
8:56 AM 54.0 °F 53.1 °F 97% 29.83 in - Variable 3.5 mph - N/A   Unknown
10:56 AM 51.1 °F 50.0 °F 96% 29.86 in - Calm Calm - N/A   Unknown
11:56 AM 51.1 °F 50.0 °F 96% 29.88 in - Calm Calm - N/A   Unknown
12:56 PM 52.0 °F 52.0 °F 100% 29.89 in - Calm Calm - N/A   Unknown
1:56 PM 52.0 °F 52.0 °F 100% 29.91 in - Calm Calm - N/A   Unknown
2:56 PM 51.1 °F 51.1 °F 100% 29.94 in - Calm Calm - N/A   Unknown
3:56 PM 52.0 °F 51.1 °F 97% 29.96 in - Calm Calm - N/A   Unknown
4:56 PM 51.1 °F 51.1 °F 100% 29.99 in - Calm Calm - 0.02 in   Unknown
5:56 PM 53.1 °F 52.0 °F 96% 30.01 in - ENE 4.6 mph - 0.02 in   Unknown
6:56 PM 52.0 °F 52.0 °F 100% 30.02 in - ENE 4.6 mph - N/A   Unknown
7:56 PM 52.0 °F 52.0 °F 100% 30.05 in - ENE 6.9 mph - N/A   Unknown
8:56 PM 54.0 °F 53.1 °F 97% 30.07 in - ENE 6.9 mph - N/A   Unknown
9:56 PM 52.0 °F 52.0 °F 100% 30.10 in - ENE 3.5 mph - 0.01 in   Unknown
10:56 PM 52.0 °F 52.0 °F 100% 30.11 in - NE 4.6 mph - 0.01 in   Unknown